{"data":{"norad_id":55046,"epoch":"2026-09-21T22:39:47.723904Z","epoch_age_seconds":40259,"freshness":"FRESH","line1":"1 55046U 23001AP  26264.94430236  .00007949  00000+0  21345-3 0  9993","line2":"2 55046  97.3100 324.7721 0008810 125.1874 235.0197 15.38162774206776","mean_motion":15.38162774,"eccentricity":0.000881,"inclination_deg":97.31,"raan_deg":324.7721,"arg_perigee_deg":125.1874,"mean_anomaly_deg":235.0197,"bstar":0.00021345,"rev_number":20677,"period_min":93.61818036041,"perigee_km":445.52534047743,"apogee_km":457.55923538276,"semimajor_km":6829.6792879301,"source":"CELESTRAK","updated_at":"2026-09-22T09:00:25.266666Z"}}